Regional Weather Roundup
Issued by NWS Goodland, KS

Home | Current Version | Previous Version | Text Only | Print | Product List | Glossary Off
Versions: 1 2 3 4 5 6 7 8 9 10 11 12 13 14 15 16 17 18 19 20 21 22 23 24 25 26 27 28 29 30 31 32 33 34 35 36 37 38 39 40 41 42 43 44 45 46 47 48 49 50

000
ASUS43 KGLD 291459
RWRGLD

GOODLAND FORECAST AREA HOURLY WEATHER ROUNDUP
NATIONAL WEATHER SERVICE GOODLAND KS
900 AM MDT SAT AUG 29 2015

...OFFICIAL OBSERVATIONS...

CITY           SKY/WX    TMP DP  RH WIND       PRES   REMARKS
GOODLAND KS    SUNNY     72  58  61 W6        30.21S
HILL CITY KS   SUNNY     73  64  73 NW6       30.14S
IMPERIAL NEB   SUNNY     68  56  65 W3        30.17S
MCCOOK NEB     SUNNY     68  60  75 W6        30.14S
AKRON CO       SUNNY     72  46  39 W10       30.25R
BURLINGTON CO  SUNNY     71  58  63 W8        30.25R
LIMON CO       SUNNY     66  52  60 CALM      30.31S
$$

...UNOFFICIAL OBSERVATIONS...

CITY           SKY/WX    TMP DP  RH WIND       PRES   REMARKS
COLBY KS       SUNNY     72  64  78 W10       30.18F
GOVE KS          N/A     67  32  27 MISG        N/A
LENORA KS        N/A     65  32  29 MISG        N/A
NORTON KS      SUNNY     68  61  77 NW3       30.14R
SHARON SPRINGS   N/A     68  62  79 W7          N/A
YUMA CO          N/A     68  51  54 CALM        N/A
$$


USA.gov is the U.S. government's official web portal to all federal, state and local government web resources and services.